ONEWEB-0200 (48244 NORAD) Tracking and Keplerian Element Data

This shows tracking and keplerian element data for the satellite.

Feedback or suggestion? Click here.




ElementValue
Catalog48244
NameONEWEB-0200
Epoch Orbit191
Epoch Day173.83334491
Epoch Year2021
RAAN294.086
Inclination87.5479
Eccentricity0.0012949
Argument of Perigee64.9713
Mean Anonmoly337.8874
Mean Motion14.38752195
Decay Rate-0.00946708
L11 48244U 21031AL 21173.83334491 -.00946708 00000-0 -32839+0 0 9998
L22 48244 87.5479 294.0860 0012949 64.9713 337.8874 14.38752195 1914

Live tracking and technical data element details for ONEWEB-0200 (NORAD 48244). ONEWEB-0200 can be tracked NOW for your location showing map with azimuth and elevation plus other details from your city location.

Track the satellite on the map from your city or location and see movement details for azimuth, elevation, latitude, longitude, range, height, and movement on the map or in text.







IsCatalogInMostPopularTable: catalog: 48244, numindb: 26
Update: records affected: 1



GetName: 48244 ONEWEB-0200

Hit Count: updated at: Thu, 24 Jun 2021 02:58:54 GMT